Regional Weather Roundup
Issued by NWS New Orleans/Baton Rouge, LA

Home | Current Version | Previous Version | Text Only | Print | Product List | Glossary Off
Versions: 1 2 3 4 5 6 7 8 9 10 11 12 13 14 15 16 17 18 19 20 21 22 23 24 25 26 27 28 29 30 31 32 33 34 35 36 37 38 39 40 41 42 43 44 45 46 47 48 49 50

994
ASUS44 KLIX 220510
RWRLIX
NEW ORLEANS REGIONAL WEATHER ROUNDUP
NATIONAL WEATHER SERVICE NEW ORLEANS LA
1100 PM CST FRI NOV 21 2014

NOTE: "FAIR" INDICATES FEW OR NO CLOUDS BELOW 12,000 FEET WITH NO
      SIGNIFICANT WEATHER AND/OR OBSTRUCTIONS TO VISIBILITY.
      SKY/WX - SKY CONDITION AND SIGNIFICANT WEATHER.
      TMP - AIR TEMPERATURE.     DP    - DEWPOINT TEMPERATURE.
      RH  - RELATIVE HUMIDITY.   PRES  - PRESSURE.
      HI  - HEAT INDEX.          WCI   - WIND CHILL INDEX.

*  THESE STATIONS ARE NOT NWS OR FAA STATIONS AND ARE NOT UNDER
   NWS QUALITY CONTROL.

LAZ038-040-048-061>063-065>067-069-220600-
SOUTHEAST LOUISIANA

CITY           SKY/WX    TMP DP  RH WIND       PRES   REMARKS
N.O. AUDUBON     N/A     59  50  71 MISG        N/A
N.O. INTL ARPT CLEAR     59  49  69 E7        30.26S
N.O. LAKEFRONT CLEAR     57  52  83 E8        30.27S
N.O. DOWNTOWN*   N/A     63  46  55 E5        30.27S
SLIDELL        CLEAR     47  44  90 CALM      30.27S
BATON ROUGE    CLOUDY    57  51  80 E6        30.27R
BOOTHVILLE     CLEAR     62  56  80 E8        30.25S
BELLE CHASSE   PTCLDY    57  49  74 E7        30.26R
BOGALUSA*        N/A     45  41  87 CALM      30.30F
NEW ROADS*       N/A     57  51  81 E3        30.27S
GONZALES*        N/A     52  52 100 CALM      30.26S
HAMMOND*       CLEAR     55  50  82 E3        30.29F
HOUMA*         CLEAR     54  51  90 NE7       30.25S
PORT FOURCHON* CLEAR     64  57  77 E8        30.26S

$$

MSZ070-080>082-220600-
SOUTHERN MISSISSIPPI

CITY           SKY/WX    TMP DP  RH WIND       PRES   REMARKS
MCCOMB         PTCLDY    51  45  79 E3        30.29S
GULFPORT       CLEAR     53  48  83 NE3       30.27F
BILOXI         CLEAR     55  49  78 E8        30.27F
PASCAGOULA     CLEAR     42  41  96 CALM      30.29S

$$

COASTAL OBSERVATIONS
LAKE AND NEARSHORE STATIONS

STATION/POSITION TIME  TEMP    WIND        PRES    WAVE
                       AIR SEA DIR/SP/G            HT/PER
                 (UTC) (F)     (DEG/KT/KT) (MB)    (FT/S)
PASCAGOULA       0500   57      60/ 10/ 14 1024.9
WAVELAND YACHT   0500   62     110/ 12/ 14 1024.0
GRAND ISLE       0500   64 61   90/  8/ 14 1024.2
SOUTHWEST PASS   0500   68 73              1023.7
NEW CANAL        0500   60 54   80/  2/  6 1025.1
SHELL BEACH      0500   59 52   90/  9/ 10 1024.3

OFFSHORE STATIONS

STATION/POSITION TIME  TEMP    WIND        PRES    WAVE
                       AIR SEA DIR/SP/G            HT/PER
                 (UTC) (F)     (DEG/KT/KT) (MB)    (FT/S)
64 S DAUPHIN ISL 0353   69 72  100/ 17/ 19 1025.0    5/ 7

$$




USA.gov is the U.S. government's official web portal to all federal, state and local government web resources and services.